Погода в Нозовке

Погода в Нозовке : погода сейчас, прогноз погоды и архив. Всё, что Вы хотите узнать о погоде в Нозовке!

Поиск расширенной информации на нашем сайте:

Другие новости

Новости СМИ2

Главная страница сайта

Новости сайта

03.07.2017

Напоминаем, что на нашем специализированном сайте Метеоцентр.Азия вы можете получить высокодетализированные автоматические прогнозы погоды по пунктам России, СНГ и мира в авиационном формате (включающие направление и скорость ветра, видимость, явления погоды, количество и форму облачности, нижнюю и верхнюю границу облачности).


Погода в Нозовке - сегодня

Время (UTC), дата Ветер
(°,м/с) 
Видим.   Явления Облачность Т
(°С)
Тd
(°С)
f(%) Тe
(°С)
Pmin
(гПа)
dP
(гПа)
Po
(мм)
O2
(г/м3)
Тmin Tmax R s Состояние
почвы
03 17.04.18 120 (ЮВ) 20000 м    9/9 2000 м средняя 
[Ac und]
-2.1 -6.7 71 -2  1019.2  0.6  752  306  -7.3      сухой снег
10-40% 
06 17.04.18 190 (Ю) 20000 м    8/8 2000 м средняя 
[Ac und]
+3.2 -9 40 +4  1019.9  0.9  753  301           
09 17.04.18 220 (ЮЗ) 20000 м    6/6 2000 м средняя 
[Ac und]
+5.9 -9.6 32 +6  1018.9  -0.8  752  298           
12 17.04.18 230 (ЮЗ) 20000 м    6/4 2000 м средняя, верхняя 
[Ac und|Ci fib]
+6.9 -9.7 29 +6  1018.4  -0.4  752  296           
18 17.04.18 050 (СВ) 20000 м    3/3 2000 м средняя 
[Ac und]
+0.4 -8.6 51 -1  1019.7  1.4  752  304           
21 17.04.18 060 (СВ) 20000 м    ясно 
-2.1 -7.8 65 -3  1020.7  0.8  753  307           
00 18.04.18 090 (В) 20000 м    ясно 
-6.4 -8.2 87 -6  1021.7  0.7  754  312           
06 18.04.18 110 (В) 20000 м    ясно 
+4.2 -8.8 38 +4  1022.6  0.7  755  300           
09 18.04.18 130 (ЮВ) 20000 м    ясно 
+6.8 -10.5 28 +7  1021.4  -1  754  297           
12 18.04.18 140 (ЮВ) 20000 м    ясно 
+8.2 -11.3 24 +9  1019.9  -1.5  753  296           
18 18.04.18 030 (СВ) 20000 м    ясно 
-2.3 -10.6 53 -2  1018.2  -0.8  751  306           
21 18.04.18 090 (В) 20000 м    ясно 
-5.8 -9.9 73 -7  1016.7  -1.7  750  310           
00 19.04.18 090 (В) 20000 м    ясно 
-4.3 -10.4 62 -4  1014.9  -1.7  749  307           
06 19.04.18 100 (В) 20000 м    3/0 верхняя 
[Ci sp]
+7.8 -9.9 27 +7  1010.2  -1.7  746  293           
09 19.04.18 130 (ЮВ) 20000 м    6/6 2000 м средняя 
[Ac und]
+13.1 -6.3 25 +14  1007.5  -2.4  744  287           
12 19.04.18 230 (ЮЗ) 20000 м    8/5 2000 м средняя, верхняя 
[Ac und|Ci fib]
+14 -3.8 29 +15  1005.8  -1.6  743  285           
18 19.04.18 120 (ЮВ) 4000 м  слаб. дождь  10/10 300 м 
[Ns]
+3.4 +1.6 88 +4  1005  -0.8  742  295           
21 19.04.18 340 (С) 4000 м  слаб. дождь  10/10 600 м 
[Ns]
+4.3 +2.8 90 +5  1002.7  -2.2  740  293           
00 20.04.18 340 (С) 4000 м  слаб. дождь  10/10 300 м 
[Ns]
+3.5 +2.5 93 +4  1001.4  -1.3  739  294           
03 20.04.18 тихо ()   0500 м  туман{дождь}  10/10 600 м 
[Sc]
+3.7 +2.5 92 +4  1000.8  -0.6  739  293  +3    мокрый или
старый снег
10-40% 
06 20.04.18 020 (С) 20000 м  {дождь, туман}  8/3 600 м средняя 
[Sc|Ac und]
+5.4 -2.8 55 +4  1002.2  1.4  740  293           
09 20.04.18 030 (СВ) 4{10}  20000 м    9/9 600 м 
[Sc]
+4.7 -4.3 52 +3  1003.8  1.6  741  294           
12 20.04.18 030 (СВ) 20000 м    6/6 600 м 
[Sc]
+6.4 -9.4 31 +5  1004.4  0.7  741  293           
18 20.04.18 030 (СВ) 20000 м    3/3 2000 м средняя 
[Ac und]
-1 -11.9 43 -3  1008.3  744  302           
21 20.04.18 010 (С) 20000 м    ясно 
-2.9 -10.8 54 -2  1008.9  0.5  744  304           
Время (UTC), дата Ветер
(°,м/с) 
Видим.   Явления Облачность Т
(°С)
Тd
(°С)
f(%) Тe
(°С)
Pmin
(гПа)
dP
(гПа)
Po
(мм)
O2
(г/м3)
Тmin Tmax R s Состояние
почвы

Для получения пояснительной информации подведите курсор к названию столбца.

ПОГОДА в Нозовке - архив

Всё, что Вы хотите узнать о погоде в Нозовке - удобно и подробно!

Выберите нужную дату (начиная с 1 января 2015* года) и нажмите кнопку "Найти".
Будут отображены архивные сводки погоды по пункту Нозовка, начиная с указанной даты.


Отображать данные в формате CSV (для использования в таблицах Excel)


Внимание! Наш архив погоды предназначен исключительно для личного некоммерческого использования в познавательных целях. Если Вам необходимы официальные справки о состоянии погоды (для производственных, юридических, коммерческих и т.п. целей), обращайтесь в органы Росгидромета.

*Примечание: данная дата относится к архиву по метеостанциям СССР (Россия, СНГ, Балтия).
Архив по метеостанциям Зарубежной Европы и Азии (кроме Китая) хранится 10 дней, по другим регионам земного шара (Китай, Африка, Америка, Австралия, Океания) - 1 день.

Нозовка - район местоположения метеостанции


Название, широта, долгота, высота метеостанции:
Нозовка 57.1°ш. 54.8°д. 131 м над ур. моря [Российская Федерация]

Дополнительная информация

В oтличие oт бoльшинства пoгoдных сайтoв мы публикуем пoдрoбную метеoинфoрмацию в детальнoм прoфессиoнальнoм фoрмате.

Характеристики температуры и влажнoсти вoздуха измеряются на высoте 2 м в тени вдали oт зданий и деревьев.
Скoрoсть ветра измеряется на высoте 10 м (на урoвне рoста челoвека скoрoсть ветра ниже в 1.5-2 раза). Если метеoстанция нахoдится в гoрoде или в лесу, тo скoрoсть ветра занижена на 2-4 м/с пo сравнению с oткрытым местoм. Скoрoсть ветра над акватoриями крупных рек и oзёр, а также на вершинах хoлмoв на 2-5 м/с выше, чем в oбычных услoвиях.
Атмoсфернoе давление в разных тoчках местнoсти мoжет значительнo oтличаться oт давления на метеoстанции, в зависимoсти oт услoвий рельефа (при пoдъёме на 10 м давление пoнижается примернo на 1 мм рт.ст.).